Estación de Los Colihues
Ultimos registro cada 15 minutos 59
| N° | Estación | Fecha / Hora | Temperatura | Humedad | Lluvia | Velocidad | Dirección | Radiación | Presion |
| 59 | Los Colihues | 04-05-2026 14:30 | 15,7 | 87,6 | 0 | 0,5 | 37 | 206,9 | 1006,7 |
| 58 | Los Colihues | 04-05-2026 14:15 | 15,4 | 87,5 | 0 | 0,5 | 59 | 121,9 | 1006,7 |
| 57 | Los Colihues | 04-05-2026 14:00 | 15,5 | 87,2 | 0 | 0,5 | 62 | 159,4 | 1006,9 |
| 56 | Los Colihues | 04-05-2026 13:45 | 15,6 | 87,9 | 0 | 0 | 56 | 176,9 | 1007,3 |
| 55 | Los Colihues | 04-05-2026 13:30 | 15,5 | 87,5 | 0 | 0 | 48 | 181,9 | 1007,2 |
| 54 | Los Colihues | 04-05-2026 13:15 | 15,5 | 86,5 | 0 | 0 | 45 | 219,4 | 1007,6 |
| 53 | Los Colihues | 04-05-2026 13:00 | 15,4 | 88,6 | 0 | 0 | 48 | 233,1 | 1007,9 |
| 52 | Los Colihues | 04-05-2026 12:45 | 15 | 90 | 0 | 0,5 | 46 | 221,9 | 1008 |
| 51 | Los Colihues | 04-05-2026 12:30 | 14,7 | 91 | 0 | 0,5 | 25 | 244,4 | 1008,4 |
| 50 | Los Colihues | 04-05-2026 12:15 | 14,3 | 91,8 | 0 | 0 | 56 | 169,4 | 1008,4 |
| 49 | Los Colihues | 04-05-2026 12:00 | 14,1 | 93,1 | 0 | 0 | 67 | 109,4 | 1008,4 |
| 48 | Los Colihues | 04-05-2026 11:45 | 14,1 | 93,2 | 0 | 0 | 51 | 86,9 | 1008,5 |
| 47 | Los Colihues | 04-05-2026 11:30 | 14,2 | 92,8 | 0 | 0 | 46 | 113,1 | 1008,5 |
| 46 | Los Colihues | 04-05-2026 11:15 | 14,3 | 92,2 | 0 | 0 | 49 | 195,6 | 1008,4 |
| 45 | Los Colihues | 04-05-2026 11:00 | 14 | 92,9 | 0 | 0 | 35 | 231,9 | 1008,6 |
| 44 | Los Colihues | 04-05-2026 10:45 | 13,1 | 95,2 | 0 | 0,5 | 39 | 154,4 | 1008,6 |
| 43 | Los Colihues | 04-05-2026 10:30 | 12,9 | 98,3 | 0 | 0 | 52 | 128,1 | 1008,5 |
| 42 | Los Colihues | 04-05-2026 10:15 | 12,3 | 100 | 0 | 0 | 51 | 160,6 | 1008,4 |
| 41 | Los Colihues | 04-05-2026 10:00 | 12 | 100 | 0 | 0 | 39 | 121,9 | 1008,5 |
| 40 | Los Colihues | 04-05-2026 09:45 | 11,8 | 100 | 0 | 0 | 35 | 103,1 | 1008,5 |
| 39 | Los Colihues | 04-05-2026 09:30 | 11,4 | 100 | 0 | 0 | 27 | 56,9 | 1008,3 |
| 38 | Los Colihues | 04-05-2026 09:15 | 11,3 | 100 | 0 | 0 | 20 | 39,4 | 1008,2 |
| 37 | Los Colihues | 04-05-2026 09:00 | 11,2 | 100 | 0 | 0 | 18 | 46,9 | 1008,4 |
| 36 | Los Colihues | 04-05-2026 08:45 | 11,1 | 100 | 0 | 0 | 18 | 56,9 | 1008,4 |
| 35 | Los Colihues | 04-05-2026 08:30 | 10,7 | 100 | 0 | 0 | 18 | 34,4 | 1008,2 |
| 34 | Los Colihues | 04-05-2026 08:15 | 10,5 | 100 | 0 | 0 | 18 | 25,6 | 1008 |
| 33 | Los Colihues | 04-05-2026 08:00 | 10,4 | 100 | 0 | 0 | 18 | 19,4 | 1007,8 |
| 32 | Los Colihues | 04-05-2026 07:45 | 10,2 | 100 | 0 | 0 | 34 | 10,6 | 1007,6 |
| 31 | Los Colihues | 04-05-2026 07:30 | 10,3 | 100 | 0 | 0 | 42 | 0,6 | 1007,3 |
| 30 | Los Colihues | 04-05-2026 07:15 | 10,4 | 100 | 0 | 0 | 32 | 0,6 | 1007,4 |
| 29 | Los Colihues | 04-05-2026 07:00 | 10,5 | 100 | 0 | 0 | 8 | 0,6 | 1007,4 |
| 28 | Los Colihues | 04-05-2026 06:45 | 10,6 | 100 | 0 | 0 | 3 | 0,6 | 1007,7 |
| 27 | Los Colihues | 04-05-2026 06:30 | 10,7 | 100 | 0 | 0 | 358 | 0,6 | 1007,7 |
| 26 | Los Colihues | 04-05-2026 06:15 | 10,7 | 100 | 0 | 0 | 358 | 0,6 | 1007,6 |
| 25 | Los Colihues | 04-05-2026 06:00 | 10,7 | 100 | 0 | 0 | 358 | 0,6 | 1007,4 |
| 24 | Los Colihues | 04-05-2026 05:45 | 10,6 | 99,9 | 0 | 0 | 1 | 0,6 | 1007,4 |
| 23 | Los Colihues | 04-05-2026 05:30 | 10,7 | 99,8 | 0 | 0 | 18 | 0,6 | 1007,4 |
| 22 | Los Colihues | 04-05-2026 05:15 | 10,6 | 99,7 | 0 | 0 | 18 | 0,6 | 1007,1 |
| 21 | Los Colihues | 04-05-2026 05:00 | 10,6 | 99,7 | 0 | 0 | 18 | 0,6 | 1007,3 |
| 20 | Los Colihues | 04-05-2026 04:45 | 10,5 | 99,6 | 0 | 0 | 18 | 0,6 | 1007,3 |
| 19 | Los Colihues | 04-05-2026 04:30 | 10,3 | 99,5 | 0 | 0 | 18 | 0,6 | 1007,4 |
| 18 | Los Colihues | 04-05-2026 04:15 | 10,2 | 99,5 | 0 | 0 | 18 | 0,6 | 1006,9 |
| 17 | Los Colihues | 04-05-2026 04:00 | 10,1 | 99,4 | 0 | 0 | 18 | 0,6 | 1006,9 |
| 16 | Los Colihues | 04-05-2026 03:45 | 10,1 | 99,4 | 0 | 0 | 18 | 0,6 | 1007,2 |
| 15 | Los Colihues | 04-05-2026 03:30 | 9,9 | 99,3 | 0 | 0 | 18 | 0,6 | 1007,5 |
| 14 | Los Colihues | 04-05-2026 03:15 | 9,7 | 99,2 | 0 | 0 | 18 | 0,6 | 1007,6 |
| 13 | Los Colihues | 04-05-2026 03:00 | 9,9 | 99 | 0 | 0 | 18 | 0,6 | 1007,7 |
| 12 | Los Colihues | 04-05-2026 02:45 | 9,9 | 99 | 0 | 0 | 18 | 0,6 | 1007,7 |
| 11 | Los Colihues | 04-05-2026 02:30 | 10,2 | 99 | 0 | 0 | 18 | 0,6 | 1007,5 |
| 10 | Los Colihues | 04-05-2026 02:15 | 10 | 99 | 0 | 0 | 18 | 0,6 | 1007,6 |
| 9 | Los Colihues | 04-05-2026 02:00 | 10,1 | 98,4 | 0 | 0 | 18 | 0,6 | 1007,5 |
| 8 | Los Colihues | 04-05-2026 01:45 | 10,5 | 98,4 | 0 | 0 | 18 | 0,6 | 1008 |
| 7 | Los Colihues | 04-05-2026 01:30 | 10,7 | 98,5 | 0 | 0 | 18 | 0,6 | 1008,3 |
| 6 | Los Colihues | 04-05-2026 01:15 | 10,6 | 98,4 | 0 | 0 | 18 | 0,6 | 1008,7 |
| 5 | Los Colihues | 04-05-2026 01:00 | 10,4 | 98,2 | 0 | 0 | 18 | 0,6 | 1008,8 |
| 4 | Los Colihues | 04-05-2026 00:45 | 10,4 | 98 | 0 | 0 | 18 | 0,6 | 1009,1 |
| 3 | Los Colihues | 04-05-2026 00:30 | 10,4 | 97,8 | 0 | 0 | 32 | 0,6 | 1009,2 |
| 2 | Los Colihues | 04-05-2026 00:15 | 10,2 | 97,7 | 0 | 0 | 37 | 0,6 | 1008,8 |
| 1 | Los Colihues | 04-05-2026 00:00 | 10,2 | 97,3 | 0 | 0 | 34 | 0,6 | 1009 |